Date String (YYYY-MM-DD hh:mm:ss) UTC,Instrument flags,Ambient pressure (hPa),Sample flow (lpm),Bypass flow (lpm),Sample temperature (°C),Ambient temperature (°C),ASC tube jacket temperature (°C),LED temperature (°C),Box temperature (°C),Sample RH (%),Span deviation,Mass concentration (μg/m³),Mass concentration (μg/m³),Mass concentration (μg/m³)
DateTimeUTC,F1_M11,P_M11,Q1_M11,Q2_M11,T1_M11,T2_M11,T3_M11,T4_M11,T5_M11,U1_M11,ZSPAN_M11,X0_M11,X2_M11,X1_M11
2021-12-17 09:00:00,,0819.5,4.99,0.00,22.2,21.9,00.0,31.1,23.9,10.1,0000.0,0000.65,0000.47,0000.41
2021-12-17 09:01:00,,0819.5,5.00,0.00,22.2,21.8,00.0,31.1,23.9,10.1,0000.0,0000.61,0000.45,0000.40
2021-12-17 09:02:00,,0819.5,5.00,0.00,22.2,21.7,00.0,31.1,23.9,10.1,0000.0,0000.60,0000.45,0000.40
2021-12-17 09:03:00,,0819.6,4.99,0.00,22.2,21.6,00.0,31.1,23.8,10.1,0000.0,0000.59,0000.44,0000.40
2021-12-17 09:04:00,,0819.6,5.00,0.00,22.2,21.6,00.0,31.1,23.8,10.1,0000.0,0000.60,0000.44,0000.39
2021-12-17 09:05:00,,0819.6,5.01,0.00,22.1,21.6,00.0,31.1,23.8,10.1,0000.0,0000.58,0000.44,0000.39
2021-12-17 09:06:00,,0819.6,5.00,0.00,22.1,21.5,00.0,31.1,23.8,10.1,0000.0,0000.64,0000.44,0000.39
2021-12-17 09:07:00,,0819.6,4.99,0.00,22.1,21.5,00.0,31.1,23.8,10.1,0000.0,0000.67,0000.44,0000.40
2021-12-17 09:08:00,,0819.6,5.01,0.00,22.1,21.5,00.0,31.1,23.8,10.1,0000.0,0001.06,0000.47,0000.40
2021-12-17 09:09:00,,0819.6,5.00,0.00,22.1,21.5,00.0,31.1,23.8,10.1,0000.0,0001.11,0000.49,0000.40
2021-12-17 09:10:00,,0819.6,5.00,0.00,22.1,21.4,00.0,31.1,23.8,10.1,0000.0,0001.07,0000.47,0000.40
2021-12-17 09:11:00,,0819.7,5.00,0.00,22.1,21.4,00.0,31.1,23.7,10.1,0000.0,0001.10,0000.48,0000.40
2021-12-17 09:12:00,,0819.7,5.00,0.00,22.1,21.4,00.0,31.1,23.8,10.1,0000.0,0001.14,0000.49,0000.40
2021-12-17 09:13:00,,0819.7,4.99,0.00,22.1,21.4,00.0,31.1,23.7,10.1,0000.0,0001.18,0000.51,0000.40
2021-12-17 09:14:00,,0819.7,5.00,0.00,22.0,21.3,00.0,31.1,23.7,10.1,0000.0,0001.18,0000.50,0000.40
2021-12-17 09:15:00,,0819.6,5.00,0.00,22.0,21.3,00.0,31.1,23.6,10.1,0000.0,0001.15,0000.49,0000.40
2021-12-17 09:16:00,,0819.7,4.99,0.00,22.0,21.2,00.0,31.1,23.6,10.1,0000.0,0001.14,0000.49,0000.40
2021-12-17 09:17:00,,0819.7,5.00,0.00,22.0,21.7,00.0,31.1,23.7,10.1,0000.0,0001.34,0000.49,0000.39
2021-12-17 09:18:00,,0819.8,5.00,0.00,22.2,22.5,00.0,31.1,24.0,10.1,0000.0,0002.45,0000.49,0000.39
2021-12-17 09:19:00,,0819.7,5.00,0.00,22.3,23.0,00.0,31.2,24.2,10.0,0000.0,0002.11,0000.47,0000.38
2021-12-17 09:20:00,,0819.7,5.00,0.00,22.3,22.8,00.0,31.2,24.2,10.0,0000.0,0002.03,0000.46,0000.38
2021-12-17 09:21:00,,0819.7,5.00,0.00,22.3,22.5,00.0,31.2,24.1,10.0,0000.0,0002.03,0000.46,0000.38
2021-12-17 09:22:00,,0819.7,5.01,0.00,22.3,22.3,00.0,31.2,24.0,10.0,0000.0,0001.99,0000.44,0000.37
2021-12-17 09:23:00,,0819.7,4.99,0.00,22.2,22.0,00.0,31.2,23.9,10.0,0000.0,0001.96,0000.43,0000.36
2021-12-17 09:24:00,,0819.7,5.01,0.00,22.2,21.8,00.0,31.2,23.8,10.0,0000.0,0001.93,0000.42,0000.35
2021-12-17 09:25:00,,0819.6,5.00,0.00,22.1,21.7,00.0,31.2,23.7,10.0,0000.0,0001.96,0000.43,0000.36
2021-12-17 09:26:00,,0819.7,4.99,0.00,22.1,21.5,00.0,31.2,23.7,10.1,0000.0,0001.98,0000.44,0000.36
2021-12-17 09:27:00,,0819.7,5.01,0.00,22.0,21.4,00.0,31.1,23.6,10.1,0000.0,0002.01,0000.45,0000.37
2021-12-17 09:28:00,,0819.6,5.01,0.00,22.0,21.3,00.0,31.1,23.5,10.1,0000.0,0001.72,0000.45,0000.37
2021-12-17 09:29:00,,0819.7,5.00,0.00,22.0,21.2,00.0,31.1,23.5,10.1,0000.0,0000.60,0000.44,0000.37
2021-12-17 09:30:00,,0819.7,4.99,0.00,21.9,21.1,00.0,31.1,23.5,10.1,0000.0,0000.64,0000.45,0000.37
2021-12-17 09:31:00,,0819.7,5.00,0.00,21.9,20.9,00.0,31.1,23.4,10.1,0000.0,0000.65,0000.45,0000.37
2021-12-17 09:32:00,,0819.7,5.01,0.00,21.8,20.8,00.0,31.0,23.4,10.2,0000.0,0000.66,0000.45,0000.37
2021-12-17 09:33:00,,0819.8,5.00,0.00,21.8,20.8,00.0,31.0,23.3,10.2,0000.0,0000.67,0000.45,0000.38
2021-12-17 09:34:00,,0819.8,5.00,0.00,21.7,20.7,00.0,31.0,23.2,10.3,0000.0,0000.67,0000.46,0000.39
2021-12-17 09:35:00,,0819.7,5.01,0.00,21.7,20.7,00.0,30.9,23.2,10.3,0000.0,0000.67,0000.47,0000.40
2021-12-17 09:36:00,,0819.8,5.00,0.00,21.6,20.8,00.0,30.9,23.2,10.3,0000.0,0000.68,0000.47,0000.40
2021-12-17 09:37:00,,0819.8,4.99,0.00,21.7,21.6,00.0,30.9,23.4,10.3,0000.0,0000.71,0000.49,0000.40
2021-12-17 09:38:00,,0819.8,5.01,0.00,21.9,22.5,00.0,31.0,23.8,10.2,0000.0,0000.71,0000.50,0000.39
2021-12-17 09:39:00,,0819.9,4.99,0.00,22.0,22.8,00.0,31.0,24.0,10.1,0000.0,0000.70,0000.49,0000.40
2021-12-17 09:40:00,,0819.9,5.00,0.00,22.0,22.5,00.0,31.0,23.9,10.1,0000.0,0000.73,0000.51,0000.40
2021-12-17 09:41:00,,0819.8,5.01,0.00,22.0,22.2,00.0,31.0,23.7,10.1,0000.0,0000.71,0000.51,0000.40
2021-12-17 09:42:00,,0819.8,5.00,0.00,22.0,21.9,00.0,31.0,23.6,10.1,0000.0,0000.69,0000.50,0000.40
2021-12-17 09:43:00,,0819.9,4.99,0.00,21.9,21.7,00.0,31.0,23.5,10.2,0000.0,0000.67,0000.50,0000.41
2021-12-17 09:44:00,,0819.8,5.01,0.00,21.9,21.4,00.0,31.0,23.5,10.2,0000.0,0000.74,0000.53,0000.41
2021-12-17 09:45:00,,0819.9,5.00,0.00,21.8,21.2,00.0,30.9,23.4,10.2,0000.0,0000.82,0000.56,0000.41
2021-12-17 09:46:00,,0819.8,5.00,0.00,21.8,21.1,00.0,30.9,23.3,10.2,0000.0,0000.82,0000.57,0000.41
2021-12-17 09:47:00,,0819.8,5.01,0.00,21.7,21.0,00.0,30.9,23.3,10.3,0000.0,0001.06,0000.55,0000.40
2021-12-17 09:48:00,,0819.9,5.00,0.00,21.7,21.0,00.0,30.9,23.2,10.2,0000.0,0001.50,0000.55,0000.41
2021-12-17 09:49:00,,0819.9,5.01,0.00,21.6,20.9,00.0,30.8,23.2,10.1,0000.0,0001.60,0000.59,0000.44
2021-12-17 09:50:00,,0819.9,5.00,0.00,21.6,20.9,00.0,30.8,23.2,10.1,0000.0,0001.75,0000.68,0000.49
2021-12-17 09:51:00,,0819.9,4.99,0.00,21.6,20.9,00.0,30.8,23.2,10.2,0000.0,0001.93,0000.73,0000.52
2021-12-17 09:52:00,,0819.9,5.00,0.00,21.6,20.8,00.0,30.8,23.1,10.2,0000.0,0002.77,0000.78,0000.55
2021-12-17 09:53:00,,0819.9,5.00,0.00,21.5,20.8,00.0,30.8,23.1,10.3,0000.0,0003.47,0000.84,0000.58
2021-12-17 09:54:00,,0819.9,4.99,0.00,21.5,20.8,00.0,30.7,23.0,10.3,0000.0,0003.62,0000.91,0000.61
2021-12-17 09:55:00,,0819.9,5.00,0.00,21.5,20.7,00.0,30.7,23.0,10.3,0000.0,0003.70,0000.95,0000.65
2021-12-17 09:56:00,,0819.9,5.01,0.00,21.5,21.0,00.0,30.7,23.1,10.3,0000.0,0003.80,0001.01,0000.69
2021-12-17 09:57:00,,0819.9,5.00,0.00,21.6,21.8,00.0,30.7,23.4,10.3,0000.0,0003.93,0001.08,0000.73
2021-12-17 09:58:00,,0819.9,4.99,0.00,21.8,22.7,00.0,30.8,23.7,10.2,0000.0,0003.76,0001.12,0000.76
2021-12-17 09:59:00,,0819.9,5.01,0.00,21.9,22.7,00.0,30.8,23.8,10.2,0000.0,0003.29,0001.13,0000.77
